Location: Shenandoah County Park
(38.9356°N, 78.4524°W)
Time: 20:18:06
(UTC-05:00)

Explorer 11/Cluster Stage 4 - Visible Passes

Search period start: 03 December 2023 00:00
Search period end: 13 December 2023 00:00
Orbit: 465 x 1227 km, 28.8° (Epoch: 03 December)

Date Brightness Start Highest point End Pass type
(mag) Time Alt. Az. Time Alt. Az. Time Alt. Az.
03 Dec 8.5 18:11:14 10° WSW 18:14:27 17° SSW 18:17:20 10° SSE visible
04 Dec 8.6 17:55:06 10° WSW 17:58:30 17° SSW 18:01:31 10° SSE visible
05 Dec 8.7 17:38:57 10° WSW 17:42:31 17° SSW 17:45:41 10° SSE visible
06 Dec 8.9 17:22:46 10° WSW 17:26:31 17° SSW 17:29:49 10° SSE visible
